Starlink 30830

operational
NORAD ID: 58194 Int'l Des: 2023-167 Owner: SPXS Country: US Constellation: starlink
LEOCIRCULAR

About Starlink 30830

Description loading...

Live Position

Loading 3D Globe...

Upcoming Passes

Altitude History

Altitude vs Time

uPlot chart will show altitude changes over time

Two-Line Element Set

1 58194U 23167V 25303.24756319 -.00000589 00000-0 -28573-4 0 9999
2 58194 43.0032 134.6726 0000889 268.7150 91.3591 15.02535205111339
Epoch: Oct 30, 2025 • Age: 15 hours

Current Status

Altitude 560.4 km
Velocity 7.59 km/s
Sub-Earth Point 31.37°N, 81.86°W
Launch Date Oct 30, 2023
Age 1.9 years
Type internet

Technical Details

Classification Payload
Mass 730.00 kg
Dry Mass 700.00 kg
Total Mass 730.00 kg
Length 0.30 m
Diameter 4.10 m
Span 29.00 m
Shape Box + pan
Manufacturer SPXS
Bus Type Starlink V2M
Phase Status In Orbit
Owner/State SPXS/US

Large Constellations

Loading constellations...